PAKSAT MM1R

导读 | 星芒AI

PAKSAT MM1R 是巴基斯坦的通信卫星,由穆罕默德六世卫星公司运营,旨在提供广播、宽带和VSAT服务。该卫星于2011年发射,位于东经38.5度轨道位置,覆盖南亚、中东和非洲部分地区。它增强了巴基斯坦的通信能力,支持电视传输、互联网接入和政府通信需求。PAKSAT MM1R 是巴基斯坦在航天和通信领域的重要基础设施,促进了国家的数字化发展。

基本信息
目录编号:
59915
目录名称:
PAKSAT MM1R
国际标识:
2024-104A
轨道中心:
EARTH
卫星名称:
PAKSAT MM1R
卫星全名:
--
卫星状态:
在轨 (已飞行519 天)
发射日期:
2024-05-30 UTC
国别 :
巴基斯坦 (PK)
星等 :
--
轨道信息
数据来源 国际轨道数据 AOE轨道数据
星历时间 2025-10-31T04:01:28+0800
11小时前
查看轨道信息
2025-10-31T06:00:00+0800
9小时前
查看轨道信息
半长轴 42164.28km 42164.252km
偏心率 0.0001897 0.0001939
轨道倾角 0.011° 0.015°
近地点辐角 42.720° 54.412°
升交点赤经 180.134° 171.200°
平近点角 155.105° 182.061°
近地点 35778.146km 35777.941km
远地点 35794.144km 35794.293km
周期 1436.074分钟 1436.072分钟
每日圈数 1.002734 1.002735
详细信息
使用方式:
暂无
2D轨道图
3D轨道图
轨道高度分析图
轨道倾角分析图
轨道综合分析图
查看轨道综合分析图